TimeCDT,TemperatureF,Dew PointF,Humidity,Sea Level PressureIn,VisibilityMPH,Wind Direction,Wind SpeedMPH,Gust SpeedMPH,PrecipitationIn,Events,Conditions,WindDirDegrees,DateUTC
12:56 AM,44.1,28.9,55,30.03,10.0,WNW,11.5,-,N/A,,Scattered Clouds,290,2013-03-11 05:56:00
1:56 AM,43.0,28.9,58,30.04,10.0,WNW,11.5,-,N/A,,Scattered Clouds,300,2013-03-11 06:56:00
2:56 AM,43.0,28.9,58,30.03,10.0,NW,13.8,21.9,N/A,,Mostly Cloudy,310,2013-03-11 07:56:00
3:56 AM,42.1,28.9,60,30.01,10.0,WNW,9.2,-,N/A,,Mostly Cloudy,300,2013-03-11 08:56:00
4:56 AM,41.0,28.0,60,29.99,10.0,NNW,17.3,26.5,N/A,,Mostly Cloudy,340,2013-03-11 09:56:00
5:56 AM,39.9,27.0,60,29.99,10.0,NNW,12.7,23.0,N/A,,Mostly Cloudy,330,2013-03-11 10:56:00
6:56 AM,39.0,27.0,62,30.03,10.0,NW,6.9,-,N/A,,Scattered Clouds,310,2013-03-11 11:56:00
7:56 AM,37.0,28.0,70,30.05,10.0,West,6.9,-,N/A,,Scattered Clouds,280,2013-03-11 12:56:00
8:56 AM,39.9,28.0,63,30.06,10.0,WNW,8.1,-,N/A,,Partly Cloudy,300,2013-03-11 13:56:00
9:56 AM,43.0,28.0,56,30.07,10.0,NW,11.5,-,N/A,,Partly Cloudy,310,2013-03-11 14:56:00
10:56 AM,46.0,28.0,50,30.08,10.0,WNW,11.5,17.3,N/A,,Partly Cloudy,300,2013-03-11 15:56:00
11:23 AM,48.2,28.4,46,30.08,10.0,NNW,11.5,-,0.00,,Partly Cloudy,340,2013-03-11 16:23:00
11:56 AM,48.9,28.9,46,30.07,10.0,WNW,16.1,19.6,N/A,,Partly Cloudy,290,2013-03-11 16:56:00
12:56 PM,51.1,28.0,41,30.05,10.0,NW,10.4,18.4,N/A,,Partly Cloudy,320,2013-03-11 17:56:00
1:56 PM,54.0,28.9,38,30.02,10.0,NW,11.5,19.6,N/A,,Partly Cloudy,310,2013-03-11 18:56:00
2:56 PM,55.0,28.0,35,30.00,10.0,WNW,13.8,21.9,N/A,,Clear,300,2013-03-11 19:56:00
3:56 PM,55.9,28.9,36,29.98,10.0,NW,15.0,19.6,N/A,,Clear,310,2013-03-11 20:56:00
4:56 PM,57.0,28.9,34,29.97,10.0,NW,17.3,21.9,N/A,,Clear,320,2013-03-11 21:56:00
5:56 PM,55.9,28.0,34,29.97,10.0,WNW,12.7,-,N/A,,Clear,300,2013-03-11 22:56:00
6:56 PM,54.0,28.9,38,29.99,10.0,WNW,11.5,-,N/A,,Clear,290,2013-03-11 23:56:00
7:56 PM,48.9,30.0,48,30.02,10.0,WNW,5.8,-,N/A,,Clear,300,2013-03-12 00:56:00
8:56 PM,45.0,30.9,58,30.03,10.0,Calm,Calm,-,N/A,,Clear,0,2013-03-12 01:56:00
9:56 PM,43.0,32.0,65,30.04,10.0,Calm,Calm,-,N/A,,Clear,0,2013-03-12 02:56:00
10:56 PM,41.0,33.1,73,30.07,10.0,West,3.5,-,N/A,,Clear,270,2013-03-12 03:56:00
11:56 PM,39.0,32.0,76,30.08,10.0,Calm,Calm,-,N/A,,Clear,0,2013-03-12 04:56:00